Year,Month,Day,Hour,Minute,Value (Times are PST for temperature in C)
2008,03,08,00,00,6.80
2008,03,08,00,01,6.80
2008,03,08,00,02,6.80
2008,03,08,00,03,6.80
2008,03,08,00,04,6.80
2008,03,08,00,05,6.80
2008,03,08,00,06,6.90
2008,03,08,00,07,6.90
2008,03,08,00,08,6.90
2008,03,08,00,09,6.90
2008,03,08,00,10,6.90
2008,03,08,00,11,7.00
2008,03,08,00,12,7.00
2008,03,08,00,13,7.00
2008,03,08,00,14,7.00
2008,03,08,00,15,6.90
2008,03,08,00,16,6.90
2008,03,08,00,17,6.90
2008,03,08,00,18,6.80
2008,03,08,00,19,6.80
2008,03,08,00,20,6.80
2008,03,08,00,21,6.80
2008,03,08,00,22,6.80
2008,03,08,00,23,6.90
2008,03,08,00,24,6.90
2008,03,08,00,25,7.00
2008,03,08,00,26,7.00
2008,03,08,00,27,7.10
2008,03,08,00,28,7.10
2008,03,08,00,29,7.10
2008,03,08,00,30,7.20
2008,03,08,00,31,7.20
2008,03,08,00,32,7.20
2008,03,08,00,33,7.20
2008,03,08,00,34,7.30
2008,03,08,00,35,7.30
2008,03,08,00,36,7.30
2008,03,08,00,37,7.30
2008,03,08,00,38,7.40
2008,03,08,00,39,7.40
2008,03,08,00,40,7.40
2008,03,08,00,41,7.40
2008,03,08,00,42,7.50
2008,03,08,00,43,7.50
2008,03,08,00,44,7.50
2008,03,08,00,45,7.60
2008,03,08,00,46,7.60
2008,03,08,00,47,7.60
2008,03,08,00,48,7.60
2008,03,08,00,49,7.50
2008,03,08,00,50,7.50
2008,03,08,00,51,7.60
2008,03,08,00,52,7.60
2008,03,08,00,53,7.60
2008,03,08,00,54,7.60
2008,03,08,00,55,7.60
2008,03,08,00,56,7.60
2008,03,08,00,57,7.60
2008,03,08,00,58,7.60
2008,03,08,00,59,7.60
2008,03,08,01,00,7.60
2008,03,08,01,01,7.70
2008,03,08,01,02,7.70
2008,03,08,01,03,7.70
2008,03,08,01,04,7.70
2008,03,08,01,05,7.70
2008,03,08,01,06,7.70
2008,03,08,01,07,7.60
2008,03,08,01,08,7.60
2008,03,08,01,09,7.50
2008,03,08,01,10,7.50
2008,03,08,01,11,7.50
2008,03,08,01,12,7.50
2008,03,08,01,13,7.50
2008,03,08,01,14,7.50
2008,03,08,01,15,7.50
2008,03,08,01,16,7.50
2008,03,08,01,17,7.50
2008,03,08,01,18,7.50
2008,03,08,01,19,7.50
2008,03,08,01,20,7.50
2008,03,08,01,21,7.50
2008,03,08,01,22,7.50
2008,03,08,01,23,7.50
2008,03,08,01,24,7.50
2008,03,08,01,25,7.50
2008,03,08,01,26,7.50
2008,03,08,01,27,7.50
2008,03,08,01,28,7.50
2008,03,08,01,29,7.50
2008,03,08,01,30,7.50
2008,03,08,01,31,7.50
2008,03,08,01,32,7.50
2008,03,08,01,33,7.50
2008,03,08,01,34,7.50
2008,03,08,01,35,7.60
2008,03,08,01,36,7.60
2008,03,08,01,37,7.60
2008,03,08,01,38,7.50
2008,03,08,01,39,7.40
2008,03,08,01,40,7.30
2008,03,08,01,41,7.30
2008,03,08,01,42,7.30
2008,03,08,01,43,7.30
2008,03,08,01,44,7.30
2008,03,08,01,45,7.30
2008,03,08,01,46,7.30
2008,03,08,01,47,7.30
2008,03,08,01,48,7.30
2008,03,08,01,49,7.30
2008,03,08,01,50,7.20
2008,03,08,01,51,7.10
2008,03,08,01,52,7.10
2008,03,08,01,53,6.90
2008,03,08,01,54,6.90
2008,03,08,01,55,6.90
2008,03,08,01,56,6.80
2008,03,08,01,57,6.80
2008,03,08,01,58,6.80
2008,03,08,01,59,6.80
2008,03,08,02,00,6.80
2008,03,08,02,01,6.80
2008,03,08,02,02,6.80
2008,03,08,02,03,6.80
2008,03,08,02,04,6.80
2008,03,08,02,05,6.80
2008,03,08,02,06,6.80
2008,03,08,02,07,6.80
2008,03,08,02,08,6.80
2008,03,08,02,09,6.80
2008,03,08,02,10,6.80
2008,03,08,02,11,6.80
2008,03,08,02,12,6.80
2008,03,08,02,13,6.80
2008,03,08,02,14,6.80
2008,03,08,02,15,6.80
2008,03,08,02,16,6.80
2008,03,08,02,17,6.80
2008,03,08,02,18,6.80
2008,03,08,02,19,6.80
2008,03,08,02,20,6.80
2008,03,08,02,21,6.80
2008,03,08,02,22,6.80
2008,03,08,02,23,6.80
2008,03,08,02,24,6.80
2008,03,08,02,25,6.80
2008,03,08,02,26,6.80
2008,03,08,02,27,6.80
2008,03,08,02,28,6.80
2008,03,08,02,29,6.80
2008,03,08,02,30,6.80
2008,03,08,02,31,6.80
2008,03,08,02,32,6.80
2008,03,08,02,33,6.70
2008,03,08,02,34,6.70
2008,03,08,02,35,6.60
2008,03,08,02,36,6.60
2008,03,08,02,37,6.60
2008,03,08,02,38,6.60
2008,03,08,02,39,6.50
2008,03,08,02,40,6.40
2008,03,08,02,41,6.40
2008,03,08,02,42,6.40
2008,03,08,02,43,6.40
2008,03,08,02,44,6.40
2008,03,08,02,45,6.50
2008,03,08,02,46,6.60
2008,03,08,02,47,6.60
2008,03,08,02,48,6.70
2008,03,08,02,49,6.70
2008,03,08,02,50,6.70
2008,03,08,02,51,6.80
2008,03,08,02,52,6.80
2008,03,08,02,53,6.70
2008,03,08,02,54,6.60
2008,03,08,02,55,6.60
2008,03,08,02,56,6.60
2008,03,08,02,57,6.60
2008,03,08,02,58,6.60
2008,03,08,02,59,6.60
2008,03,08,03,00,6.60
2008,03,08,03,01,6.60
2008,03,08,03,02,6.60
2008,03,08,03,03,6.70
2008,03,08,03,04,6.70
2008,03,08,03,05,6.70
2008,03,08,03,06,6.80
2008,03,08,03,07,6.70
2008,03,08,03,08,6.70
2008,03,08,03,09,6.70
2008,03,08,03,10,6.70
2008,03,08,03,11,6.70
2008,03,08,03,12,6.70
2008,03,08,03,13,6.70
2008,03,08,03,14,6.70
2008,03,08,03,15,6.80
2008,03,08,03,16,6.80
2008,03,08,03,17,6.80
2008,03,08,03,18,6.80
2008,03,08,03,19,6.80
2008,03,08,03,20,6.80
2008,03,08,03,21,6.80
2008,03,08,03,22,6.70
2008,03,08,03,23,6.70
2008,03,08,03,24,6.70
2008,03,08,03,25,6.60
2008,03,08,03,26,6.60
2008,03,08,03,27,6.60
2008,03,08,03,28,6.60
2008,03,08,03,29,6.60
2008,03,08,03,30,6.60
2008,03,08,03,31,6.60
2008,03,08,03,32,6.60
2008,03,08,03,33,6.60
2008,03,08,03,34,6.60
2008,03,08,03,35,6.70
2008,03,08,03,36,6.70
2008,03,08,03,37,6.70
2008,03,08,03,38,6.80
2008,03,08,03,39,6.80
2008,03,08,03,40,6.80
2008,03,08,03,41,6.80
2008,03,08,03,42,6.80
2008,03,08,03,43,6.80
2008,03,08,03,44,6.80
2008,03,08,03,45,6.80
2008,03,08,03,46,6.80
2008,03,08,03,47,6.80
2008,03,08,03,48,6.80
2008,03,08,03,49,6.80
2008,03,08,03,50,6.80
2008,03,08,03,51,6.80
2008,03,08,03,52,6.80
2008,03,08,03,53,6.80
2008,03,08,03,54,6.80
2008,03,08,03,55,6.70
2008,03,08,03,56,6.70
2008,03,08,03,57,6.60
2008,03,08,03,58,6.60
2008,03,08,03,59,6.60
2008,03,08,04,00,6.60
2008,03,08,04,01,6.40
2008,03,08,04,02,6.40
2008,03,08,04,03,6.40
2008,03,08,04,04,6.40
2008,03,08,04,05,6.40
2008,03,08,04,06,6.40
2008,03,08,04,07,6.40
2008,03,08,04,08,6.40
2008,03,08,04,09,6.40
2008,03,08,04,10,6.40
2008,03,08,04,11,6.40
2008,03,08,04,12,6.30
2008,03,08,04,13,6.30
2008,03,08,04,14,6.30
2008,03,08,04,15,6.20
2008,03,08,04,16,6.20
2008,03,08,04,17,6.20
2008,03,08,04,18,6.20
2008,03,08,04,19,6.20
2008,03,08,04,20,6.20
2008,03,08,04,21,6.20
2008,03,08,04,22,6.20
2008,03,08,04,23,6.30
2008,03,08,04,24,6.30
2008,03,08,04,25,6.30
2008,03,08,04,26,6.30
2008,03,08,04,27,6.30
2008,03,08,04,28,6.30
2008,03,08,04,29,6.30
2008,03,08,04,30,6.30
2008,03,08,04,31,6.30
2008,03,08,04,32,6.30
2008,03,08,04,33,6.40
2008,03,08,04,34,6.40
2008,03,08,04,35,6.30
2008,03,08,04,36,6.30
2008,03,08,04,37,6.30
2008,03,08,04,38,6.30
2008,03,08,04,39,6.20
2008,03,08,04,40,6.20
2008,03,08,04,41,6.20
2008,03,08,04,42,6.20
2008,03,08,04,43,6.10
2008,03,08,04,44,6.10
2008,03,08,04,45,6.10
2008,03,08,04,46,6.00
2008,03,08,04,47,6.00
2008,03,08,04,48,6.00
2008,03,08,04,49,6.00
2008,03,08,04,50,6.00
2008,03,08,04,51,6.00
2008,03,08,04,52,6.00
2008,03,08,04,53,6.00
2008,03,08,04,54,5.90
2008,03,08,04,55,5.90
2008,03,08,04,56,5.90
2008,03,08,04,57,5.90
2008,03,08,04,58,5.80
2008,03,08,04,59,5.80
2008,03,08,05,00,5.80
2008,03,08,05,01,5.80
2008,03,08,05,02,5.80
2008,03,08,05,03,5.70
2008,03,08,05,04,5.70
2008,03,08,05,05,5.80
2008,03,08,05,06,5.80
2008,03,08,05,07,5.90
2008,03,08,05,08,5.90
2008,03,08,05,09,5.90
2008,03,08,05,10,6.00
2008,03,08,05,11,6.00
2008,03,08,05,12,6.00
2008,03,08,05,13,6.10
2008,03,08,05,14,6.10
2008,03,08,05,15,6.10
2008,03,08,05,16,6.20
2008,03,08,05,17,6.20
2008,03,08,05,18,6.20
2008,03,08,05,19,6.20
2008,03,08,05,20,6.20
2008,03,08,05,21,6.20
2008,03,08,05,22,6.20
2008,03,08,05,23,6.20
2008,03,08,05,24,6.20
2008,03,08,05,25,6.20
2008,03,08,05,26,6.20
2008,03,08,05,27,6.30
2008,03,08,05,28,6.30
2008,03,08,05,29,6.30
2008,03,08,05,30,6.40
2008,03,08,05,31,6.40
2008,03,08,05,32,6.40
2008,03,08,05,33,6.50
2008,03,08,05,34,6.60
2008,03,08,05,35,6.60
2008,03,08,05,36,6.60
2008,03,08,05,37,6.60
2008,03,08,05,38,6.60
2008,03,08,05,39,6.60
2008,03,08,05,40,6.60
2008,03,08,05,41,6.60
2008,03,08,05,42,6.70
2008,03,08,05,43,6.70
2008,03,08,05,44,6.70
2008,03,08,05,45,6.70
2008,03,08,05,46,6.70
2008,03,08,05,47,6.80
2008,03,08,05,48,6.80
2008,03,08,05,49,6.70
2008,03,08,05,50,6.70
2008,03,08,05,51,6.70
2008,03,08,05,52,6.70
2008,03,08,05,53,6.60
2008,03,08,05,54,6.60
2008,03,08,05,55,6.60
2008,03,08,05,56,6.60
2008,03,08,05,57,6.60
2008,03,08,05,58,6.60
2008,03,08,05,59,6.60
2008,03,08,06,00,6.70
2008,03,08,06,01,6.80
2008,03,08,06,02,6.80
2008,03,08,06,03,6.80
2008,03,08,06,04,6.80
2008,03,08,06,05,6.90
2008,03,08,06,06,6.90
2008,03,08,06,07,6.90
2008,03,08,06,08,6.90
2008,03,08,06,09,6.80
2008,03,08,06,10,6.80
2008,03,08,06,11,6.80
2008,03,08,06,12,6.80
2008,03,08,06,13,6.90
2008,03,08,06,14,6.90
2008,03,08,06,15,7.00
2008,03,08,06,16,7.00
2008,03,08,06,17,7.00
2008,03,08,06,18,7.00
2008,03,08,06,19,7.00
2008,03,08,06,20,7.00
2008,03,08,06,21,7.10
2008,03,08,06,22,7.10
2008,03,08,06,23,7.20
2008,03,08,06,24,7.20
2008,03,08,06,25,7.30
2008,03,08,06,26,7.30
2008,03,08,06,27,7.30
2008,03,08,06,28,7.30
2008,03,08,06,29,7.30
2008,03,08,06,30,7.20
2008,03,08,06,31,7.10
2008,03,08,06,32,7.10
2008,03,08,06,33,7.00
2008,03,08,06,34,7.00
2008,03,08,06,35,7.00
2008,03,08,06,36,6.90
2008,03,08,06,37,6.90
2008,03,08,06,38,6.80
2008,03,08,06,39,6.80
2008,03,08,06,40,6.80
2008,03,08,06,41,6.80
2008,03,08,06,42,6.80
2008,03,08,06,43,6.70
2008,03,08,06,44,6.70
2008,03,08,06,45,6.70
2008,03,08,06,46,6.70
2008,03,08,06,47,6.70
2008,03,08,06,48,6.70
2008,03,08,06,49,6.70
2008,03,08,06,50,6.70
2008,03,08,06,51,6.70
2008,03,08,06,52,6.70
2008,03,08,06,53,6.70
2008,03,08,06,54,6.70
2008,03,08,06,55,6.70
2008,03,08,06,56,6.70
2008,03,08,06,57,6.70
2008,03,08,06,58,6.70
2008,03,08,06,59,6.70
2008,03,08,07,00,6.80
2008,03,08,07,01,6.80
2008,03,08,07,02,6.80
2008,03,08,07,03,6.80
2008,03,08,07,04,6.90
2008,03,08,07,05,6.90
2008,03,08,07,06,7.00
2008,03,08,07,07,7.00
2008,03,08,07,08,7.10
2008,03,08,07,09,7.20
2008,03,08,07,10,7.20
2008,03,08,07,11,7.30
2008,03,08,07,12,7.30
2008,03,08,07,13,7.30
2008,03,08,07,14,7.30
2008,03,08,07,15,7.30
2008,03,08,07,16,7.30
2008,03,08,07,17,7.30
2008,03,08,07,18,7.30
2008,03,08,07,19,7.30
2008,03,08,07,20,7.30
2008,03,08,07,21,7.30
2008,03,08,07,22,7.30
2008,03,08,07,23,7.30
2008,03,08,07,24,7.30
2008,03,08,07,25,7.30
2008,03,08,07,26,7.30
2008,03,08,07,27,7.30
2008,03,08,07,28,7.30
2008,03,08,07,29,7.30
2008,03,08,07,30,7.40
2008,03,08,07,31,7.40
2008,03,08,07,32,7.40
2008,03,08,07,33,7.50
2008,03,08,07,34,7.50
2008,03,08,07,35,7.50
2008,03,08,07,36,7.50
2008,03,08,07,37,7.50
2008,03,08,07,38,7.50
2008,03,08,07,39,7.50
2008,03,08,07,40,7.50
2008,03,08,07,41,7.50
2008,03,08,07,42,7.40
2008,03,08,07,43,7.30
2008,03,08,07,44,7.30
2008,03,08,07,45,7.30
2008,03,08,07,46,7.30
2008,03,08,07,47,7.30
2008,03,08,07,48,7.30
2008,03,08,07,49,7.30
2008,03,08,07,50,7.30
2008,03,08,07,51,7.20
2008,03,08,07,52,7.20
2008,03,08,07,53,7.20
2008,03,08,07,54,7.20
2008,03,08,07,55,7.20
2008,03,08,07,56,7.20
2008,03,08,07,57,7.20
2008,03,08,07,58,7.30
2008,03,08,07,59,7.30
2008,03,08,08,00,7.40
2008,03,08,08,01,7.40
2008,03,08,08,02,7.40
2008,03,08,08,03,7.40
2008,03,08,08,04,7.40
2008,03,08,08,05,7.40
2008,03,08,08,06,7.50
2008,03,08,08,07,7.50
2008,03,08,08,08,7.50
2008,03,08,08,09,7.60
2008,03,08,08,10,7.60
2008,03,08,08,11,7.60
2008,03,08,08,12,7.70
2008,03,08,08,13,7.70
2008,03,08,08,14,7.70
2008,03,08,08,15,7.80
2008,03,08,08,16,7.80
2008,03,08,08,17,7.90
2008,03,08,08,18,7.90
2008,03,08,08,19,7.90
2008,03,08,08,20,7.80
2008,03,08,08,21,7.80
2008,03,08,08,22,7.80
2008,03,08,08,23,7.80
2008,03,08,08,24,7.70
2008,03,08,08,25,7.70
2008,03,08,08,26,7.70
2008,03,08,08,27,7.70
2008,03,08,08,28,7.70
2008,03,08,08,29,7.80
2008,03,08,08,30,7.80
2008,03,08,08,31,7.80
2008,03,08,08,32,7.90
2008,03,08,08,33,8.00
2008,03,08,08,34,8.00
2008,03,08,08,35,8.10
2008,03,08,08,36,8.10
2008,03,08,08,37,8.20
2008,03,08,08,38,8.20
2008,03,08,08,39,8.10
2008,03,08,08,40,8.10
2008,03,08,08,41,8.10
2008,03,08,08,42,8.10
2008,03,08,08,43,8.10
2008,03,08,08,44,8.00
2008,03,08,08,45,8.00
2008,03,08,08,46,7.90
2008,03,08,08,47,7.90
2008,03,08,08,48,7.90
2008,03,08,08,49,8.00
2008,03,08,08,50,8.00
2008,03,08,08,51,8.00
2008,03,08,08,52,8.10
2008,03,08,08,53,8.10
2008,03,08,08,54,8.10
2008,03,08,08,55,8.10
2008,03,08,08,56,8.00
2008,03,08,08,57,8.00
2008,03,08,08,58,8.00
2008,03,08,08,59,8.10
2008,03,08,09,00,8.10
2008,03,08,09,01,8.10
2008,03,08,09,02,8.10
2008,03,08,09,03,8.10
2008,03,08,09,04,8.10
2008,03,08,09,05,8.10
2008,03,08,09,06,8.20
2008,03,08,09,07,8.20
2008,03,08,09,08,8.20
2008,03,08,09,09,8.30
2008,03,08,09,10,8.30
2008,03,08,09,11,8.30
2008,03,08,09,12,8.40
2008,03,08,09,13,8.50
2008,03,08,09,14,8.40
2008,03,08,09,15,8.40
2008,03,08,09,16,8.30
2008,03,08,09,17,8.30
2008,03,08,09,18,8.20
2008,03,08,09,19,8.30
2008,03,08,09,20,8.30
2008,03,08,09,21,8.40
2008,03,08,09,22,8.50
2008,03,08,09,23,8.60
2008,03,08,09,24,8.70
2008,03,08,09,25,8.70
2008,03,08,09,26,8.70
2008,03,08,09,27,8.80
2008,03,08,09,28,8.90
2008,03,08,09,29,9.00
2008,03,08,09,30,9.10
2008,03,08,09,31,9.20
2008,03,08,09,32,9.20
2008,03,08,09,33,9.20
2008,03,08,09,34,9.20
2008,03,08,09,35,9.20
2008,03,08,09,36,9.20
2008,03,08,09,37,9.20
2008,03,08,09,38,9.20
2008,03,08,09,39,9.30
2008,03,08,09,40,9.40
2008,03,08,09,41,9.50
2008,03,08,09,42,9.50
2008,03,08,09,43,9.50
2008,03,08,09,44,9.40
2008,03,08,09,45,9.40
2008,03,08,09,46,9.40
2008,03,08,09,47,9.40
2008,03,08,09,48,9.40
2008,03,08,09,49,9.30
2008,03,08,09,50,9.20
2008,03,08,09,51,9.10
2008,03,08,09,52,8.90
2008,03,08,09,53,8.90
2008,03,08,09,54,8.90
2008,03,08,09,55,9.00
2008,03,08,09,56,9.00
2008,03,08,09,57,9.00
2008,03,08,09,58,8.90
2008,03,08,09,59,9.00
2008,03,08,10,00,9.00
2008,03,08,10,01,8.90
2008,03,08,10,02,8.80
2008,03,08,10,03,8.70
2008,03,08,10,04,8.60
2008,03,08,10,05,8.50
2008,03,08,10,06,8.50
2008,03,08,10,07,8.50
2008,03,08,10,08,8.40
2008,03,08,10,09,8.50
2008,03,08,10,10,8.50
2008,03,08,10,11,8.50
2008,03,08,10,12,8.60
2008,03,08,10,13,8.60
2008,03,08,10,14,8.50
2008,03,08,10,15,8.50
2008,03,08,10,16,8.30
2008,03,08,10,17,8.20
2008,03,08,10,18,8.10
2008,03,08,10,19,8.10
2008,03,08,10,20,8.00
2008,03,08,10,21,8.00
2008,03,08,10,22,7.90
2008,03,08,10,23,7.90
2008,03,08,10,24,7.90
2008,03,08,10,25,7.80
2008,03,08,10,26,7.80
2008,03,08,10,27,7.80
2008,03,08,10,28,7.80
2008,03,08,10,29,7.80
2008,03,08,10,30,7.80
2008,03,08,10,31,7.80
2008,03,08,10,32,7.80
2008,03,08,10,33,7.80
2008,03,08,10,34,7.90
2008,03,08,10,35,7.80
2008,03,08,10,36,7.80
2008,03,08,10,37,7.70
2008,03,08,10,38,7.70
2008,03,08,10,39,7.60
2008,03,08,10,40,7.60
2008,03,08,10,41,7.60
2008,03,08,10,42,7.60
2008,03,08,10,43,7.70
2008,03,08,10,44,7.70
2008,03,08,10,45,7.70
2008,03,08,10,46,7.70
2008,03,08,10,47,7.60
2008,03,08,10,48,7.60
2008,03,08,10,49,7.60
2008,03,08,10,50,7.60
2008,03,08,10,51,7.60
2008,03,08,10,52,7.60
2008,03,08,10,53,7.60
2008,03,08,10,54,7.60
2008,03,08,10,55,7.60
2008,03,08,10,56,7.70
2008,03,08,10,57,7.70
2008,03,08,10,58,7.80
2008,03,08,10,59,7.80
2008,03,08,11,00,7.80
2008,03,08,11,01,7.80
2008,03,08,11,02,7.90
2008,03,08,11,03,7.90
2008,03,08,11,04,7.90
2008,03,08,11,05,8.00
2008,03,08,11,06,8.00
2008,03,08,11,07,8.00
2008,03,08,11,08,8.00
2008,03,08,11,09,8.00
2008,03,08,11,10,8.00
2008,03,08,11,11,8.10
2008,03,08,11,12,8.10
2008,03,08,11,13,8.20
2008,03,08,11,14,8.20
2008,03,08,11,15,8.30
2008,03,08,11,16,8.40
2008,03,08,11,17,8.40
2008,03,08,11,18,8.70
2008,03,08,11,19,8.80
2008,03,08,11,20,8.80
2008,03,08,11,21,8.70
2008,03,08,11,22,8.70
2008,03,08,11,23,8.70
2008,03,08,11,24,8.70
2008,03,08,11,25,8.70
2008,03,08,11,26,8.70
2008,03,08,11,27,8.90
2008,03,08,11,28,8.90
2008,03,08,11,29,8.90
2008,03,08,11,30,8.90
2008,03,08,11,31,9.00
2008,03,08,11,32,9.00
2008,03,08,11,33,9.10
2008,03,08,11,34,9.10
2008,03,08,11,35,9.10
2008,03,08,11,36,9.20
2008,03,08,11,37,9.20
2008,03,08,11,38,9.20
2008,03,08,11,39,9.30
2008,03,08,11,40,9.40
2008,03,08,11,41,9.40
2008,03,08,11,42,9.40
2008,03,08,11,43,9.50
2008,03,08,11,44,9.50
2008,03,08,11,45,9.40
2008,03,08,11,46,9.40
2008,03,08,11,47,9.40
2008,03,08,11,48,9.40
2008,03,08,11,49,9.40
2008,03,08,11,50,9.40
2008,03,08,11,51,9.40
2008,03,08,11,52,9.40
2008,03,08,11,53,9.40
2008,03,08,11,54,9.40
2008,03,08,11,55,9.50
2008,03,08,11,56,9.60
2008,03,08,11,57,9.70
2008,03,08,11,58,9.70
2008,03,08,11,59,9.80
2008,03,08,12,00,9.90
2008,03,08,12,01,9.90
2008,03,08,12,02,9.90
2008,03,08,12,03,9.90
2008,03,08,12,04,9.90
2008,03,08,12,05,9.90
2008,03,08,12,06,10.00
2008,03,08,12,07,10.10
2008,03,08,12,08,10.10
2008,03,08,12,09,10.10
2008,03,08,12,10,10.20
2008,03,08,12,11,10.20
2008,03,08,12,12,10.20
2008,03,08,12,13,10.30
2008,03,08,12,14,10.20
2008,03,08,12,15,10.10
2008,03,08,12,16,10.10
2008,03,08,12,17,10.20
2008,03,08,12,18,10.20
2008,03,08,12,19,10.30
2008,03,08,12,20,10.40
2008,03,08,12,21,10.40
2008,03,08,12,22,10.40
2008,03,08,12,23,10.40
2008,03,08,12,24,10.60
2008,03,08,12,25,10.60
2008,03,08,12,26,10.60
2008,03,08,12,27,10.50
2008,03,08,12,28,10.40
2008,03,08,12,29,10.20
2008,03,08,12,30,10.10
2008,03,08,12,31,10.10
2008,03,08,12,32,10.00
2008,03,08,12,33,9.90
2008,03,08,12,34,9.90
2008,03,08,12,35,9.80
2008,03,08,12,36,9.70
2008,03,08,12,37,9.60
2008,03,08,12,38,9.50
2008,03,08,12,39,9.40
2008,03,08,12,40,9.40
2008,03,08,12,41,9.30
2008,03,08,12,42,9.20
2008,03,08,12,43,9.20
2008,03,08,12,44,9.20
2008,03,08,12,45,9.20
2008,03,08,12,46,9.10
2008,03,08,12,47,9.10
2008,03,08,12,48,9.00
2008,03,08,12,49,9.00
2008,03,08,12,50,8.90
2008,03,08,12,51,9.00
2008,03,08,12,52,9.00
2008,03,08,12,53,9.20
2008,03,08,12,54,9.20
2008,03,08,12,55,9.20
2008,03,08,12,56,9.20
2008,03,08,12,57,9.30
2008,03,08,12,58,9.30
2008,03,08,12,59,9.30
2008,03,08,13,00,9.30
2008,03,08,13,01,9.40
2008,03,08,13,02,9.50
2008,03,08,13,03,9.50
2008,03,08,13,04,9.40
2008,03,08,13,05,9.40
2008,03,08,13,06,9.50
2008,03,08,13,07,9.60
2008,03,08,13,08,9.70
2008,03,08,13,09,9.70
2008,03,08,13,10,9.70
2008,03,08,13,11,9.70
2008,03,08,13,12,9.70
2008,03,08,13,13,9.70
2008,03,08,13,14,9.60
2008,03,08,13,15,9.70
2008,03,08,13,16,9.70
2008,03,08,13,17,9.70
2008,03,08,13,18,9.70
2008,03,08,13,19,9.80
2008,03,08,13,20,9.80
2008,03,08,13,21,9.80
2008,03,08,13,22,9.80
2008,03,08,13,23,9.80
2008,03,08,13,24,9.70
2008,03,08,13,25,9.70
2008,03,08,13,26,9.70
2008,03,08,13,27,9.70
2008,03,08,13,28,9.70
2008,03,08,13,29,9.70
2008,03,08,13,30,9.80
2008,03,08,13,31,9.80
2008,03,08,13,32,9.90
2008,03,08,13,33,9.90
2008,03,08,13,34,9.90
2008,03,08,13,35,10.10
2008,03,08,13,36,10.20
2008,03,08,13,37,10.20
2008,03,08,13,38,10.10
2008,03,08,13,39,10.10
2008,03,08,13,40,10.10
2008,03,08,13,41,10.10
2008,03,08,13,42,10.30
2008,03,08,13,43,10.40
2008,03,08,13,44,10.60
2008,03,08,13,45,10.80
2008,03,08,13,46,11.00
2008,03,08,13,47,11.20
2008,03,08,13,48,11.30
2008,03,08,13,49,11.40
2008,03,08,13,50,11.40
2008,03,08,13,51,11.20
2008,03,08,13,52,11.20
2008,03,08,13,53,11.10
2008,03,08,13,54,11.10
2008,03,08,13,55,11.20
2008,03,08,13,56,11.30
2008,03,08,13,57,11.40
2008,03,08,13,58,11.60
2008,03,08,13,59,11.60
2008,03,08,14,00,11.60
2008,03,08,14,01,11.60
2008,03,08,14,02,11.70
2008,03,08,14,03,11.80
2008,03,08,14,04,12.00
2008,03,08,14,05,12.10
2008,03,08,14,06,12.20
2008,03,08,14,07,12.20
2008,03,08,14,08,12.20
2008,03,08,14,09,12.20
2008,03,08,14,10,12.10
2008,03,08,14,11,12.10
2008,03,08,14,12,12.20
2008,03,08,14,13,12.10
2008,03,08,14,14,12.10
2008,03,08,14,15,12.10
2008,03,08,14,16,12.10
2008,03,08,14,17,12.10
2008,03,08,14,18,12.10
2008,03,08,14,19,12.20
2008,03,08,14,20,12.30
2008,03,08,14,21,12.30
2008,03,08,14,22,12.40
2008,03,08,14,23,12.40
2008,03,08,14,24,12.40
2008,03,08,14,25,12.50
2008,03,08,14,26,12.60
2008,03,08,14,27,12.70
2008,03,08,14,28,12.70
2008,03,08,14,29,12.80
2008,03,08,14,30,12.70
2008,03,08,14,31,12.70
2008,03,08,14,32,12.70
2008,03,08,14,33,12.70
2008,03,08,14,34,12.60
2008,03,08,14,35,12.60
2008,03,08,14,36,12.60
2008,03,08,14,37,12.50
2008,03,08,14,38,12.40
2008,03,08,14,39,12.30
2008,03,08,14,40,12.30
2008,03,08,14,41,12.30
2008,03,08,14,42,12.30
2008,03,08,14,43,12.30
2008,03,08,14,44,12.30
2008,03,08,14,45,12.30
2008,03,08,14,46,12.30
2008,03,08,14,47,12.40
2008,03,08,14,48,12.40
2008,03,08,14,49,12.50
2008,03,08,14,50,12.60
2008,03,08,14,51,12.80
2008,03,08,14,52,12.80
2008,03,08,14,53,12.70
2008,03,08,14,54,12.60
2008,03,08,14,55,12.50
2008,03,08,14,56,12.50
2008,03,08,14,57,12.60
2008,03,08,14,58,12.60
2008,03,08,14,59,12.50
2008,03,08,15,00,12.40
2008,03,08,15,01,12.30
2008,03,08,15,02,12.20
2008,03,08,15,03,12.20
2008,03,08,15,04,12.20
2008,03,08,15,05,12.10
2008,03,08,15,06,12.10
2008,03,08,15,07,12.00
2008,03,08,15,08,12.00
2008,03,08,15,09,11.90
2008,03,08,15,10,11.80
2008,03,08,15,11,11.70
2008,03,08,15,12,11.70
2008,03,08,15,13,11.70
2008,03,08,15,14,11.70
2008,03,08,15,15,11.80
2008,03,08,15,16,11.80
2008,03,08,15,17,11.80
2008,03,08,15,18,11.80
2008,03,08,15,19,11.80
2008,03,08,15,20,11.70
2008,03,08,15,21,11.70
2008,03,08,15,22,11.60
2008,03,08,15,23,11.40
2008,03,08,15,24,11.40
2008,03,08,15,25,11.30
2008,03,08,15,26,11.30
2008,03,08,15,27,11.30
2008,03,08,15,28,11.30
2008,03,08,15,29,11.30
2008,03,08,15,30,11.20
2008,03,08,15,31,11.20
2008,03,08,15,32,11.20
2008,03,08,15,33,11.20
2008,03,08,15,34,11.20
2008,03,08,15,35,11.10
2008,03,08,15,36,11.10
2008,03,08,15,37,11.10
2008,03,08,15,38,11.10
2008,03,08,15,39,11.00
2008,03,08,15,40,10.90
2008,03,08,15,41,10.90
2008,03,08,15,42,10.90
2008,03,08,15,43,10.90
2008,03,08,15,44,10.90
2008,03,08,15,45,10.90
2008,03,08,15,46,10.90
2008,03,08,15,47,10.90
2008,03,08,15,48,10.80
2008,03,08,15,49,10.80
2008,03,08,15,50,10.70
2008,03,08,15,51,10.60
2008,03,08,15,52,10.60
2008,03,08,15,53,10.50
2008,03,08,15,54,10.40
2008,03,08,15,55,10.40
2008,03,08,15,56,10.40
2008,03,08,15,57,10.40
2008,03,08,15,58,10.30
2008,03,08,15,59,10.20
2008,03,08,16,00,10.20
2008,03,08,16,01,10.20
2008,03,08,16,02,10.30
2008,03,08,16,03,10.20
2008,03,08,16,04,10.20
2008,03,08,16,05,10.10
2008,03,08,16,06,10.10
2008,03,08,16,07,10.10
2008,03,08,16,08,9.90
2008,03,08,16,09,9.90
2008,03,08,16,10,9.90
2008,03,08,16,11,9.80
2008,03,08,16,12,9.80
2008,03,08,16,13,9.80
2008,03,08,16,14,9.80
2008,03,08,16,15,9.80
2008,03,08,16,16,9.80
2008,03,08,16,17,9.80
2008,03,08,16,18,9.80
2008,03,08,16,19,9.80
2008,03,08,16,20,9.80
2008,03,08,16,21,9.80
2008,03,08,16,22,9.80
2008,03,08,16,23,9.80
2008,03,08,16,24,9.80
2008,03,08,16,25,9.70
2008,03,08,16,26,9.70
2008,03,08,16,27,9.70
2008,03,08,16,28,9.70
2008,03,08,16,29,9.60
2008,03,08,16,30,9.50
2008,03,08,16,31,9.40
2008,03,08,16,32,9.40
2008,03,08,16,33,9.30
2008,03,08,16,34,9.20
2008,03,08,16,35,9.20
2008,03,08,16,36,9.20
2008,03,08,16,37,9.10
2008,03,08,16,38,9.10
2008,03,08,16,39,9.10
2008,03,08,16,40,9.10
2008,03,08,16,41,9.10
2008,03,08,16,42,9.10
2008,03,08,16,43,9.10
2008,03,08,16,44,9.10
2008,03,08,16,45,9.10
2008,03,08,16,46,9.10
2008,03,08,16,47,9.10
2008,03,08,16,48,9.10
2008,03,08,16,49,9.10
2008,03,08,16,50,9.10
2008,03,08,16,51,9.10
2008,03,08,16,52,9.10
2008,03,08,16,53,9.10
2008,03,08,16,54,9.20
2008,03,08,16,55,9.20
2008,03,08,16,56,9.20
2008,03,08,16,57,9.20
2008,03,08,16,58,9.20
2008,03,08,16,59,9.20
2008,03,08,17,00,9.20
2008,03,08,17,01,9.20
2008,03,08,17,02,9.20
2008,03,08,17,03,9.20
2008,03,08,17,04,9.30
2008,03,08,17,05,9.30
2008,03,08,17,06,9.40
2008,03,08,17,07,9.40
2008,03,08,17,08,9.40
2008,03,08,17,09,9.40
2008,03,08,17,10,9.30
2008,03,08,17,11,9.20
2008,03,08,17,12,9.20
2008,03,08,17,13,9.20
2008,03,08,17,14,9.10
2008,03,08,17,15,9.10
2008,03,08,17,16,9.00
2008,03,08,17,17,9.00
2008,03,08,17,18,9.00
2008,03,08,17,19,9.00
2008,03,08,17,20,9.00
2008,03,08,17,21,9.00
2008,03,08,17,22,9.00
2008,03,08,17,23,8.90
2008,03,08,17,24,8.90
2008,03,08,17,25,8.90
2008,03,08,17,26,8.90
2008,03,08,17,27,8.80
2008,03,08,17,28,8.80
2008,03,08,17,29,8.80
2008,03,08,17,30,8.80
2008,03,08,17,31,8.70
2008,03,08,17,32,8.70
2008,03,08,17,33,8.60
2008,03,08,17,34,8.60
2008,03,08,17,35,8.50
2008,03,08,17,36,8.50
2008,03,08,17,37,8.50
2008,03,08,17,38,8.50
2008,03,08,17,39,8.40
2008,03,08,17,40,8.40
2008,03,08,17,41,8.50
2008,03,08,17,42,8.40
2008,03,08,17,43,8.40
2008,03,08,17,44,8.30
2008,03,08,17,45,8.20
2008,03,08,17,46,8.20
2008,03,08,17,47,8.10
2008,03,08,17,48,8.10
2008,03,08,17,49,8.00
2008,03,08,17,50,8.00
2008,03,08,17,51,7.90
2008,03,08,17,52,7.90
2008,03,08,17,53,7.80
2008,03,08,17,54,7.80
2008,03,08,17,55,7.80
2008,03,08,17,56,7.80
2008,03,08,17,57,7.70
2008,03,08,17,58,7.80